Lapse_Rate
7.4 7.5 7.7 8.0 8.1 8.0 7.9 7.8 7.9 8.1 8.2 8.2 8.1 8.2 8.3 8.2 7.7 7.3 6.7 6.7 6.8 6.8 6.8 6.9 6.9 7.0 7.2 7.2 7.2 7.1 7.1 7.2
7.6 7.7 7.7 7.9 8.0 8.2 8.2 8.1 8.0 8.1 8.1 8.2 8.2 8.2 8.0 7.9 7.7 7.3 6.5 6.4 6.4 6.3 6.2 6.4 6.8 6.7 7.0 6.8 7.0 7.0 6.8 6.9
7.6 7.6 7.6 7.6 7.6 7.9 8.0 8.0 8.1 8.1 7.9 8.0 7.9 7.8 7.7 7.8 7.4 7.5 7.1 6.8 6.4 6.4 6.4 6.5 6.6 6.5 6.5 6.6 6.8 6.5 6.8 7.1
7.5 7.4 7.5 7.4 7.5 7.6 7.7 7.8 7.8 7.8 7.8 7.7 7.6 7.7 7.7 7.5 7.4 7.6 7.6 6.7 6.5 6.5 6.6 6.7 6.6 6.4 6.4 6.5 6.8 6.7 6.6 6.9
7.1 7.0 7.3 7.4 7.5 7.5 7.7 7.9 7.9 7.9 7.7 7.3 7.4 7.5 7.5 7.4 7.4 7.2 7.1 6.9 7.0 6.8 6.9 6.7 6.5 6.5 6.5 6.8 6.7 6.4 6.7 6.8
7.1 7.1 7.0 7.1 7.2 7.2 7.3 7.5 7.7 7.9 7.9 7.8 7.4 7.1 7.0 7.3 7.3 7.2 7.0 6.9 6.7 6.7 6.9 6.7 6.5 6.7 6.5 6.6 6.5 6.4 6.5 6.7
7.0 6.9 7.2 7.3 7.2 7.2 7.3 7.4 7.6 7.8 8.0 7.8 7.6 7.2 7.0 7.2 7.3 7.3 7.2 7.0 6.8 6.6 6.6 6.5 6.8 6.9 6.3 6.5 6.6 6.6 6.8 6.8
6.6 6.7 6.8 6.8 6.9 6.9 7.0 7.1 7.3 7.6 7.8 7.9 7.9 7.5 7.3 7.3 7.2 7.1 7.3 7.1 6.9 6.6 6.6 6.1 6.5 6.5 6.4 6.4 6.6 6.7 7.0 6.9
6.0 6.2 6.2 6.3 6.5 6.6 6.7 7.0 7.1 7.5 7.9 7.9 7.8 7.7 7.3 7.1 7.1 7.1 7.2 6.8 6.5 6.2 6.2 6.0 6.0 6.2 6.4 6.5 6.6 6.9 6.9 6.9
5.8 6.0 6.0 5.9 6.1 6.2 6.6 7.0 7.2 7.7 8.2 8.2 8.0 7.5 7.0 7.2 7.0 6.9 6.9 6.9 6.5 6.0 5.5 5.8 5.1 5.3 6.2 6.5 6.7 6.8 6.9 6.9
5.2 5.4 5.7 5.9 6.0 6.4 6.5 6.9 7.3 7.7 8.0 8.0 7.8 7.9 7.3 7.4 7.2 7.2 7.0 6.7 6.0 5.6 5.5 5.9 5.3 5.7 6.5 7.0 6.8 6.7 6.8 6.9
5.2 5.5 5.6 6.2 7.0 7.3 7.0 7.2 7.6 7.6 7.6 8.0 7.8 7.5 7.2 7.2 7.1 6.5 6.7 6.3 5.9 5.6 5.7 5.7 5.6 5.6 6.7 6.8 6.7 6.8 6.8 6.9
6.5 7.0 6.8 7.8 8.2 7.8 7.6 7.5 7.9 7.7 7.9 7.9 8.0 7.7 7.2 7.3 6.5 6.6 5.4 5.4 6.3 5.5 5.0 5.4 5.2 6.4 6.9 6.8 7.0 7.0 6.9 6.9
7.4 7.6 7.7 7.6 7.8 7.7 7.2 7.2 7.3 7.9 7.9 7.3 7.8 7.7 7.4 6.9 6.7 5.5 5.0 5.1 5.4 5.8 5.4 5.0 5.9 6.3 6.7 7.1 7.0 7.0 6.9 7.0
7.4 7.5 7.3 7.4 7.7 7.6 7.2 7.2 7.1 7.1 7.2 7.1 7.5 7.1 6.9 6.7 6.1 5.5 5.1 5.3 5.2 4.4 5.6 5.4 6.0 6.4 6.7 6.8 7.0 7.0 6.9 7.1
7.3 7.2 7.2 7.2 7.3 7.1 6.9 6.8 6.8 7.3 7.0 6.6 6.5 6.4 6.4 6.2 5.6 5.5 5.6 5.8 5.3 5.3 5.1 5.8 6.1 6.4 6.4 6.6 6.8 6.9 6.9 7.1
7.3 7.5 7.6 7.5 7.1 7.0 7.3 7.1 6.8 7.0 6.7 6.2 5.7 5.9 5.9 5.8 5.8 5.7 5.7 5.7 5.5 5.6 6.0 5.9 6.1 6.1 6.3 6.5 6.6 6.8 6.9 6.9
7.0 6.8 6.9 7.2 7.2 7.2 6.9 6.9 6.4 6.2 6.2 6.4 6.2 5.9 5.8 5.8 5.8 5.9 6.5 6.3 5.7 5.6 6.2 6.2 6.2 6.2 6.1 6.2 6.6 6.7 6.7 6.7
7.2 7.1 7.1 7.3 7.1 7.2 7.1 6.8 6.6 6.4 6.5 6.5 6.5 6.1 6.1 6.2 6.1 6.0 6.0 5.9 6.0 6.2 6.1 6.3 6.4 6.1 6.0 6.4 6.2 6.1 6.3 6.4
Wind_Speed
15 17 18 19 20 16 19 16 16 13 10 9 8 8 8 11 10 13 15 16 17 14 12 14 15 9 8 9 11 10 10 11
15 12 15 16 16 15 20 19 17 13 11 11 12 12 11 10 9 15 16 16 17 14 11 12 13 10 12 13 11 13 10 11
9 10 14 16 17 17 20 19 19 16 13 12 13 13 12 11 10 14 14 17 18 15 12 11 10 10 14 14 14 11 10 12
6 10 12 14 18 19 20 20 20 17 17 11 11 12 10 11 11 11 12 14 17 17 16 11 11 10 9 13 15 16 10 9
4 4 9 14 16 17 17 17 17 16 16 14 18 16 15 12 13 12 12 15 15 17 17 15 12 9 12 11 11 11 8 10
6 8 10 10 13 15 17 18 18 17 18 17 14 15 13 12 11 15 13 12 15 17 16 15 13 10 11 12 13 12 9 9
16 13 9 10 11 13 15 17 18 19 19 18 19 18 16 14 14 11 11 11 10 12 14 13 14 12 12 12 12 12 9 7
12 12 12 9 9 11 11 15 18 17 18 18 19 18 18 18 17 13 14 11 11 12 13 12 11 11 12 11 11 10 9 9
7 8 9 8 7 9 12 15 17 18 18 17 16 17 12 12 15 12 12 12 12 15 12 11 10 14 12 11 9 8 9 8
10 9 5 6 7 10 13 16 17 17 17 15 15 14 15 14 15 15 13 14 12 16 14 11 11 12 13 12 9 10 10 8
18 14 9 6 8 9 12 16 18 18 18 15 14 14 13 11 12 15 16 16 14 17 14 14 12 11 12 12 11 11 10 8
23 19 15 9 10 10 10 13 14 13 13 13 13 11 11 12 12 10 14 15 13 14 13 12 13 12 11 11 12 12 12 10
23 23 17 15 13 12 12 11 11 9 14 14 14 14 13 13 9 12 13 16 14 14 13 13 13 11 11 12 12 12 12 12
22 15 17 18 12 12 11 11 13 12 13 14 15 15 16 15 15 13 12 9 11 12 14 13 13 10 10 8 11 12 11 7
20 16 17 14 13 12 12 11 11 12 12 13 14 16 17 15 14 14 13 13 11 7 9 8 8 8 9 9 9 10 9 8
15 15 14 11 10 11 9 8 7 9 11 11 10 10 13 17 16 15 14 15 14 11 12 10 11 11 9 12 12 11 10 9
12 9 8 4 6 6 7 9 10 11 11 10 11 12 13 15 16 17 15 16 15 15 15 14 13 9 13 12 13 11 11 11
12 12 10 11 9 9 5 9 9 9 13 13 12 12 15 16 17 17 16 17 18 15 15 15 14 12 16 15 12 11 10 10
4 3 6 7 10 7 7 11 11 8 11 15 15 14 17 18 18 18 18 16 16 14 14 14 13 11 18 19 12 12 11 11
Wind_Direction
237 224 209 208 195 200 195 190 175 165 155 157 162 164 163 166 179 184 175 180 176 182 171 162 169 158 152 167 158 149 143 133
253 223 217 212 208 194 197 186 172 159 164 168 175 183 177 178 181 174 177 178 178 178 170 164 172 167 159 159 154 150 145 135
249 221 211 203 204 202 202 191 180 180 179 184 186 185 184 179 177 176 178 177 176 174 171 174 175 166 168 164 159 164 161 169
231 207 205 210 212 209 208 198 188 186 183 184 181 177 175 177 178 176 177 181 178 173 172 175 171 166 176 173 169 177 170 180
240 220 217 217 223 212 204 199 189 187 183 181 180 182 182 186 176 171 171 176 175 173 168 174 172 177 177 181 180 180 180 181
333 290 272 258 232 217 208 199 190 187 183 184 179 190 193 175 175 164 167 173 177 171 174 172 177 177 179 187 187 195 192 180
321 322 310 277 251 226 210 204 196 187 184 185 184 191 182 174 175 175 165 173 173 176 169 174 171 178 176 185 187 189 193 188
332 323 315 294 258 232 221 212 204 197 189 188 184 180 174 175 173 176 162 173 178 176 176 166 173 172 173 175 184 183 185 194
320 339 334 314 273 238 221 217 209 200 195 191 189 180 172 174 174 174 174 173 175 169 169 162 155 159 163 166 171 176 180 182
318 318 319 304 273 245 230 220 215 199 196 187 187 178 179 176 175 169 172 167 166 169 158 146 161 156 163 162 158 159 162 160
306 294 294 298 281 260 250 237 225 205 195 189 185 177 174 168 164 169 163 158 165 159 153 148 155 168 160 159 153 151 148 149
292 282 289 275 269 243 230 234 230 197 193 180 174 161 159 154 163 169 159 143 149 153 145 138 151 170 162 154 148 145 145 146
287 277 261 264 248 242 238 229 206 182 183 170 167 147 143 147 154 140 153 151 143 146 144 151 160 167 160 151 144 145 143 145
284 272 263 276 248 232 225 220 207 183 180 175 165 156 153 152 145 138 134 137 146 144 149 160 166 153 137 151 143 140 140 105
290 283 264 254 244 237 213 212 195 182 178 174 166 165 163 150 139 145 146 149 147 135 123 126 119 115 136 125 120 102 118 102
304 282 276 256 248 238 189 174 153 151 154 154 155 150 144 139 141 144 154 149 149 139 131 131 132 133 142 143 132 121 128 126
345 336 319 287 251 234 182 187 166 149 140 135 139 139 145 141 140 155 153 152 152 159 153 146 145 146 141 130 138 140 147 146
4 5 30 358 330 290 184 167 155 171 147 144 142 151 147 147 151 153 153 155 158 154 149 151 148 138 142 135 139 146 150 144
354 289 301 284 285 273 199 152 156 153 148 149 143 155 150 149 152 154 153 154 152 146 151 152 142 134 152 147 157 146 140 144